This is the latest recevied weather packets stored in our database for station/object N8VDS-10. If no packets are shown the sender has not sent any weather packets the latest 1 day(s).
| Time | Temp. | Humidity | Pressure | Rain* | Wind** | Luminosity | Snow |
|---|---|---|---|---|---|---|---|
| 1778107070 | 10.56° C | 44% | 1015.8 hPa | 0 mm | - | 67 W/m² | - |
| 1778106766 | 10.56° C | 44% | 1016 hPa | 0 mm | - | 80 W/m² | - |
| 1778106463 | 10.56° C | 44% | 1016 hPa | 0 mm | - | 79 W/m² | - |
| 1778103134 | 11.11° C | 43% | 1015.9 hPa | 0 mm | - | 159 W/m² | - |
| 1778102831 | 11.11° C | 41% | 1015.8 hPa | 0 mm | - | 303 W/m² | - |
| 1778102222 | 11.11° C | 44% | 1015.8 hPa | 0 mm | - | 145 W/m² | - |
| 1778101312 | 11.11° C | 43% | 1015.9 hPa | 0 mm | - | 211 W/m² | - |
| 1778100704 | 10.56° C | 42% | 1015.9 hPa | 0 mm | - | 204 W/m² | - |
| 1778099192 | 10.56° C | 42% | 1015.9 hPa | 0 mm | - | 168 W/m² | - |
| 1778095553 | 11.11° C | 43% | 1016.1 hPa | 0 mm | - | 386 W/m² | - |
| 1778095249 | 10.56° C | 42% | 1016.2 hPa | 0 mm | - | 1006 W/m² | - |
| 1778093733 | 10° C | 44% | 1016.4 hPa | 0 mm | - | 270 W/m² | - |
| 1778091611 | 10.56° C | 44% | 1016.2 hPa | 0 mm | - | 560 W/m² | - |
| 1778091309 | 11.11° C | 43% | 1016.4 hPa | 0 mm | - | 347 W/m² | - |
| 1778091006 | 10.56° C | 45% | 1016.6 hPa | 0 mm | - | 583 W/m² | - |
| 1778090399 | 9.44° C | 47% | 1016.4 hPa | 0 mm | - | 223 W/m² | - |
| 1778089792 | 9.44° C | 46% | 1016.6 hPa | 0 mm | - | 162 W/m² | - |
| 1778088884 | 9.44° C | 48% | 1016.7 hPa | 0 mm | - | 247 W/m² | - |
| 1778088278 | 8.89° C | 49% | 1016.8 hPa | 0 mm | - | 192 W/m² | - |
| 1778087672 | 9.44° C | 49% | 1016.6 hPa | 0 mm | - | 173 W/m² | - |
| 1778087066 | 9.44° C | 51% | 1016.5 hPa | 0 mm | - | 359 W/m² | - |
| 1778086463 | 10° C | 49% | 1016.6 hPa | 0 mm | - | 269 W/m² | - |
| 1778085554 | 9.44° C | 49% | 1016.8 hPa | 0 mm | - | 206 W/m² | - |
| 1778084943 | 8.89° C | 54% | 1016.8 hPa | 0 mm | - | 623 W/m² | - |
| 1778084338 | 8.33° C | 54% | 1017 hPa | 0 mm | - | 624 W/m² | - |
* Rain latest hour (hover to see other rain measurements)
** Current wind speed in m/s (hover to see current wind gust speed)